Millbury, Ohio, United States (43447)
Lat: 41.57N, Lon: 83.42W
Wx Zone: OHZ006
Local Info
Past Weather Observations for Today

NOTE: This archive is for the closest National Weather Service station to Millbury. Information may differ from the station used for current weather conditions.

Click here for Long-term Archive

Time Weather Temperature Dewpoint Humidity Pressure Winds Precip Visibility
19:53
Mostly Cloudy
25°F / -4°C 10°F / -12°C 54% 30.09 in
(1019 mb)
N 5.8 mph
(N 9 kph)
- 10SM
18:53
Overcast
25°F / -4°C 10°F / -12°C 54% 30.09 in
(1019 mb)
NNW 10.4 mph
(NNW 17 kph)
0.00 in
(0.00 mm)
10SM
17:53
Overcast
27°F / -3°C 16°F / -9°C 64% 30.06 in
(1018 mb)
NNE 9.2 mph
(NNE 15 kph)
0.00 in
(0.00 mm)
10SM
17:41
Overcast
Light Snow
27°F / -3°C 18°F / -8°C 69% 30.06 in
(1018 mb)
NNE 6.9 mph
(NNE 11 kph)
0.00 in
(0.00 mm)
3SM
17:29
Overcast
Light Snow
25°F / -4°C 18°F / -8°C 74% 30.06 in
(1018 mb)
NNE 11.5 mph
(NNE 19 kph)
0.00 in
(0.00 mm)
1 1/2SM
16:53
Overcast
27°F / -3°C 12°F / -11°C 54% 30.06 in
(1018 mb)
NW 13.8 mph
(NW 22 kph)
- 10SM
15:53
Overcast
28°F / -2°C 12°F / -11°C 51% 30.04 in
(1017 mb)
NW 11.5 mph
(NW 19 kph)
- 10SM
14:53
Overcast
28°F / -2°C 14°F / -10°C 55% 30.04 in
(1017 mb)
NNW 11.5 mph
(NNW 19 kph)
- 10SM
13:53
Overcast
27°F / -3°C 14°F / -10°C 59% 30.04 in
(1017 mb)
NNW 10.4 mph
(NNW 17 kph)
0.00 in
(0.00 mm)
10SM
12:53
Overcast
Light Snow
27°F / -3°C 14°F / -10°C 59% 30.04 in
(1017 mb)
NW 10.4 mph
(NW 17 kph)
0.00 in
(0.00 mm)
8SM
11:53
Overcast
27°F / -3°C 12°F / -11°C 54% 30.04 in
(1017 mb)
NW 10.4 mph
(NW 17 kph)
- 10SM
10:53
Overcast
27°F / -3°C 12°F / -11°C 54% 30.04 in
(1017 mb)
NNW 10.4 mph
(NNW 17 kph)
- 10SM
09:53
Overcast
27°F / -3°C 12°F / -11°C 54% 30.04 in
(1017 mb)
NW 13.8 mph
(NW 22 kph)
- 10SM
08:53
Overcast
25°F / -4°C 12°F / -11°C 59% 30.04 in
(1017 mb)
NNW 12.7 mph
(NNW 20 kph)
- 10SM
07:53
Overcast
25°F / -4°C 12°F / -11°C 59% 30.04 in
(1017 mb)
NNW 15 mph
(NNW 24 kph)
- 10SM
06:53
Clear
25°F / -4°C 14°F / -10°C 63% 30.01 in
(1016 mb)
NNW 15 mph
(NNW 24 kph)
- 10SM
05:53
Mostly Cloudy
28°F / -2°C 18°F / -8°C 64% 29.98 in
(1015 mb)
NW 13.8 mph
(NW 22 kph)
- 10SM
04:53
Overcast
30°F / -1°C 18°F / -8°C 59% 29.98 in
(1015 mb)
NNW 12.7 mph
(NNW 20 kph)
- 10SM
03:53
Overcast
32°F / 0°C 18°F / -8°C 55% 29.98 in
(1015 mb)
NNW 15 mph
(NNW 24 kph)
- 10SM
02:53
Overcast
34°F / 1°C 19°F / -7°C 56% 29.98 in
(1015 mb)
NNW 10.4 mph
(NNW 17 kph)
- 10SM
01:53
Overcast
34°F / 1°C 21°F / -6°C 60% 29.98 in
(1015 mb)
NW 11.5 mph
(NW 19 kph)
0.00 in
(0.00 mm)
10SM
00:53
Overcast
36°F / 2°C 21°F / -6°C 56% 29.95 in
(1014 mb)
NW 10.4 mph
(NW 17 kph)
- 10SM
Time Weather Temperature Dewpoint Humidity Pressure Winds Precip Visibility


Weather for websites

WeatherForYou.com, LLC is not responsible for any damages or problems caused by this service. Current weather conditions are obtained from the closest station including government and personal stations which may have varying degrees of accuracy. Weather forecasts are derived from the NOAA NDFD. Like all things, this site belongs to Jesus Christ... He just trusts me to maintain it. If you have any questions or comments email webmaster@weatherforyou.com

Copyright © 2015, WeatherForYou.com LLC. All rights reserved.